Regional Weather Roundup
Issued by NWS

Home | Current Version | Previous Version | Text Only | Print | Product List | Glossary On
Versions: 1 2 3 4 5 6 7 8 9 10 11 12 13 14 15 16 17 18 19 20 21 22 23 24 25 26 27 28 29 30 31 32 33 34 35 36 37 38 39 40 41 42 43 44 45 46 47 48 49 50
679
ASUS43 KLOT 231008
RWRIL

ILLINOIS REGIONAL WEATHER ROUNDUP
NATIONAL WEATHER SERVICE CHICAGO/ROMEOVILLE IL
400 AM CST MON JAN 23 2017

NOTE: "FAIR" INDICATES FEW OR NO CLOUDS BELOW 12,000 FEET WITH NO
SIGNIFICANT WEATHER AND/OR OBSTRUCTIONS TO VISIBILITY.

* THESE STATIONS ARE NOT UNDER NWS QUALITY CONTROL. THEY ALSO MAY NOT
  REPORT WEATHER SUCH AS PRECIPITATION OR FOG.

ILZ001-002-007-009-015-016-024-231100-
NORTHWEST ILLINOIS

CITY           SKY/WX    TMP DP  RH WIND       PRES   REMARKS
MOLINE         CLOUDY    37  34  89 NW6       29.78S WCI  32
STERLING*      CLOUDY    37  36  96 NW8       29.76F FOG     WCI  31
SAVANNA*       CLOUDY    36  35  96 NW5       29.77F FOG     WCI  32
$$

ILZ003-004-008-010-011-017-018-231100-
NORTH CENTRAL ILLINOIS

CITY           SKY/WX    TMP DP  RH WIND       PRES   REMARKS
ROCKFORD       DRIZZLE   37  35  92 NW8       29.75F WCI  31
FREEPORT*      CLOUDY    35  35  99 W7        29.77S FOG     WCI  29
ROCHELLE*      CLOUDY    36  35  94 N7        29.74S WCI  31
DE KALB*       CLOUDY    37  35  93 NW9       29.73R WCI  30
PERU*          CLOUDY    36  33  89 N12       29.75R WCI  28
$$

ILZ005-006-012>014-019>023-231100-
NORTHEAST ILLINOIS

CITY           SKY/WX    TMP DP  RH WIND       PRES   REMARKS
CHICAGO-OHARE  CLOUDY    37  36  96 NW10      29.70R WCI  30
CHICAGO-MIDWAY CLOUDY    39  34  82 N20G25    29.70S WCI  29
AURORA         CLOUDY    38  35  89 NW12      29.71F FOG     WCI  30
LANSING*       CLOUDY    37  37 100 NE6       29.71R FOG     WCI  32
JOLIET*        CLOUDY    39  37  92 N9        29.71S FOG     WCI  33
WAUKEGAN       CLOUDY    37  35  92 NW7       29.70S WCI  32
DUPAGE AIRPORT CLOUDY    38  34  85 N10       29.70S WCI  31
KANKAKEE*      CLOUDY    39  37  91 N9        29.70R WCI  33
WHEELING       CLOUDY    37  35  92 NW7       29.72R WCI  32
MORRIS*        CLOUDY    37  36  93 N7        29.71S FOG     WCI  32
ROMEOVILLE*    CLOUDY    38  37  99 N9        29.71S WCI  31
NORTHERLY ISL    N/A     38  35  89 NW12        N/A  WCI  30
$$

LMZ740>746-231100-
SOUTHERN LAKE MICHIGAN

STATION/POSITION SKY/WX   TEMP    WIND        PRES    VSBY  WAVE
                          AIR SEA DIR/SP/G                  HT/PER
                          (F)     (DEG/KT/KT) (MB)    (MI)  (FT/S)
HARRISON CRIB              36     340/ 15/ 16   N/A
BURNHAM HARBOR             38     340/ 11/ 11   N/A
CALUMET HARBOR             36     320/ 12/ 18 1005.5R
BURNS HARBOR               36     350/ 11/ 13 1006.4R
MICHIGAN CITY              36     340/ 16/ 17   N/A
$$

ILZ025>027-034>036-040-047-049-050-058-095>099-231100-
WEST-CENTRAL ILLINOIS

CITY           SKY/WX    TMP DP  RH WIND       PRES   REMARKS
QUINCY         CLOUDY    38  35  89 NW15      29.79R WCI  29
GALESBURG*     CLOUDY    35  35 100 NW6       29.77F FOG     WCI  30
MACOMB*        CLOUDY    36  36  98 NW13      29.80F FOG     WCI  28
JACKSONVILLE*  CLOUDY    37  36  93 NW15      29.75S FOG     WCI  28
PITTSFIELD*    CLOUDY    39  37  92 NW10      29.79S WCI  32
$$

ILZ028>032-037-038-041>044-048-051>054-059>061-231100-
CENTRAL ILLINOIS

CITY           SKY/WX    TMP DP  RH WIND       PRES   REMARKS
PONTIAC        CLOUDY    38  38 100 NW12      29.72R FOG     WCI  31
BLOOMINGTON    CLOUDY    37  35  92 N17G24    29.71S WCI  27
DECATUR        CLOUDY    40  38  93 N12       29.71R
PEORIA         CLOUDY    37  35  92 NW12G17   29.75S WCI  29
LACON*         CLOUDY    37  35  94 N9        29.75R WCI  30
LINCOLN*       CLOUDY    39  38  95 NW8       29.73S WCI  34
SPRINGFIELD    CLOUDY    40  36  86 N12       29.74S
TAYLORVILLE    CLOUDY    38  36  93 N17       29.73R FOG     WCI  28
$$

ILZ033-039-045-046-055>057-062-063-231100-
EAST-CENTRAL ILLINOIS

CITY           SKY/WX    TMP DP  RH WIND       PRES   REMARKS
CHAMPAIGN      CLOUDY    39  36  89 N17       29.68R WCI  30
RANTOUL*       CLOUDY    41  39  92 N15       29.69R
MATTOON        CLOUDY    40  38  93 N16       29.67R FOG
PARIS*         CLOUDY    40  39  97 N13G21    29.65R FOG
$$

ILZ079-100>102-231100-
SOUTHWEST ILLINOIS

CITY           SKY/WX    TMP DP  RH WIND       PRES   REMARKS
ALTON          CLOUDY    38  36  90 NW9       29.76R WCI  32
BELLEVILLE     CLOUDY    40  39  96 NW13      29.73R
CAHOKIA*       CLOUDY    41  35  79 NW16      29.76R
SPARTA*        CLOUDY    38  35  87 NW12G17   29.73S WCI  31
$$

ILZ064>066-069>071-074>076-080>082-084>086-088>090-092>094-231100-
SOUTH-CENTRAL ILLINOIS

CITY           SKY/WX    TMP DP  RH WIND       PRES   REMARKS
CARBONDALE     CLOUDY    41  37  86 NW16G24   29.70R
CAIRO*         PTCLDY    41  36  82 NW20G29   29.66R
EFFINGHAM*     CLOUDY    41  40  97 NW15G22   29.69R FOG
MARION         CLOUDY    43  39  87 NW10G23   29.69R
MT. VERNON     CLOUDY    41  37  86 N8G20     29.68R
CENTRALIA*     CLOUDY    41  38  89 N21G28    29.70R
SALEM*         CLOUDY    42  38  86 NW20      29.70R FOG
METROPOLIS*    CLOUDY    43  37  81 NW18G31   29.63R
$$

ILZ067-068-072-073-078-083-087-091-231100-
SOUTHEAST ILLINOIS

CITY           SKY/WX    TMP DP  RH WIND       PRES   REMARKS
LAWRENCEVILLE  CLOUDY    43  41  93 NW21G35   29.60R
FLORA*         CLOUDY    43  39  86 NW15G22   29.66R
FAIRFIELD*     CLOUDY    41  38  89 NW7       29.63S
HARRISBURG*    CLOUDY    42  38  87 NW10G21   29.64R
ROBINSON*      CLOUDY    41  40  93 N16G25    29.62S
CARMI*         CLOUDY    42  40  89 NW20G25   29.61R
$$

ABBREVIATIONS USED IN REMARKS
   TC - TEMPERATURE IN CELSIUS
  WCI - WIND CHILL INDEX
   HX - HEAT INDEX
  VSB - VISIBILITY
$$





USA.gov is the U.S. government's official web portal to all federal, state and local government web resources and services.